Time,TemperatureF,DewpointF,PressureIn,WindDirection,WindDirectionDegrees,WindSpeedMPH,WindSpeedGustMPH,Humidity,HourlyPrecipIn,Conditions,Clouds,dailyrainin,SoftwareType,DateUTC
2013-01-19 00:02:00,39.0,29.0,-100.00,SSW,195,12.0,16.0,69,-99.99,,,-99.99,,2013-01-19 06:02:00,
2013-01-19 00:12:00,38.0,29.0,-100.00,SSW,195,14.0,18.0,70,-99.99,,,-99.99,,2013-01-19 06:12:00,
2013-01-19 00:22:00,38.0,29.0,-100.00,SSW,195,14.0,18.0,70,-99.99,,,-99.99,,2013-01-19 06:22:00,
2013-01-19 00:43:00,38.0,30.0,-100.00,South,190,14.0,16.0,70,-99.99,,,-99.99,,2013-01-19 06:43:00,
2013-01-19 00:53:00,38.0,30.0,-100.00,SSW,205,14.0,18.0,71,-99.99,,,-99.99,,2013-01-19 06:53:00,
2013-01-19 01:02:00,38.0,30.0,-100.00,SSW,205,14.0,18.0,71,-99.99,,,-99.99,,2013-01-19 07:02:00,
2013-01-19 01:12:00,38.0,30.0,-100.00,SSW,195,14.0,16.0,71,-99.99,,,-99.99,,2013-01-19 07:12:00,
2013-01-19 01:22:00,38.0,29.0,-100.00,South,190,12.0,16.0,72,-99.99,,,-99.99,,2013-01-19 07:22:00,
2013-01-19 01:33:00,38.0,29.0,-100.00,South,190,12.0,16.0,72,-99.99,,,-99.99,,2013-01-19 07:33:00,
2013-01-19 01:43:00,38.0,30.0,-100.00,SSW,195,14.0,17.0,73,-99.99,,,-99.99,,2013-01-19 07:43:00,
2013-01-19 01:53:00,38.0,30.0,-100.00,South,190,12.0,16.0,73,-99.99,,,-99.99,,2013-01-19 07:53:00,
2013-01-19 02:02:00,38.0,30.0,-100.00,South,190,12.0,16.0,73,-99.99,,,-99.99,,2013-01-19 08:02:00,
2013-01-19 02:12:00,37.0,29.0,-100.00,SSW,195,12.0,14.0,73,-99.99,,,-99.99,,2013-01-19 08:12:00,
2013-01-19 02:22:00,38.0,30.0,-100.00,SSW,200,16.0,18.0,73,-99.99,,,-99.99,,2013-01-19 08:22:00,
2013-01-19 02:32:00,38.0,30.0,-100.00,SSW,200,16.0,18.0,73,-99.99,,,-99.99,,2013-01-19 08:32:00,
2013-01-19 02:43:00,38.0,30.0,-100.00,SSW,200,14.0,16.0,73,-99.99,,,-99.99,,2013-01-19 08:43:00,
2013-01-19 02:53:00,38.0,30.0,-100.00,SSW,200,14.0,16.0,73,-99.99,,,-99.99,,2013-01-19 08:53:00,
2013-01-19 03:02:00,38.0,30.0,-100.00,SSW,200,14.0,16.0,73,-99.99,,,-99.99,,2013-01-19 09:02:00,
2013-01-19 03:12:00,38.0,30.0,-100.00,SSW,205,12.0,14.0,73,-99.99,,,-99.99,,2013-01-19 09:12:00,
2013-01-19 03:23:00,38.0,30.0,-100.00,SSW,195,14.0,18.0,72,-99.99,,,-99.99,,2013-01-19 09:23:00,
2013-01-19 03:33:00,38.0,30.0,-100.00,SSW,195,14.0,18.0,72,-99.99,,,-99.99,,2013-01-19 09:33:00,
2013-01-19 03:42:00,38.0,29.0,-100.00,SSW,195,12.0,16.0,71,-99.99,,,-99.99,,2013-01-19 09:42:00,
2013-01-19 03:53:00,38.0,29.0,-100.00,SSW,200,14.0,19.0,70,-99.99,,,-99.99,,2013-01-19 09:53:00,
2013-01-19 04:02:00,38.0,29.0,-100.00,SSW,200,14.0,19.0,70,-99.99,,,-99.99,,2013-01-19 10:02:00,
2013-01-19 04:12:00,38.0,29.0,-100.00,SSW,195,14.0,17.0,70,-99.99,,,-99.99,,2013-01-19 10:12:00,
2013-01-19 04:22:00,38.0,29.0,-100.00,South,185,12.0,14.0,70,-99.99,,,-99.99,,2013-01-19 10:22:00,
2013-01-19 04:32:00,38.0,29.0,-100.00,South,185,12.0,14.0,70,-99.99,,,-99.99,,2013-01-19 10:32:00,
2013-01-19 04:42:00,38.0,29.0,-100.00,South,185,10.0,14.0,70,-99.99,,,-99.99,,2013-01-19 10:42:00,
2013-01-19 04:53:00,38.0,29.0,-100.00,South,190,16.0,21.0,69,-99.99,,,-99.99,,2013-01-19 10:53:00,
2013-01-19 05:03:00,38.0,29.0,-100.00,South,190,16.0,21.0,69,-99.99,,,-99.99,,2013-01-19 11:03:00,
2013-01-19 05:12:00,38.0,29.0,-100.00,SSW,195,14.0,16.0,69,-99.99,,,-99.99,,2013-01-19 11:12:00,
2013-01-19 06:48:00,38.0,28.0,-100.00,South,185,11.0,14.0,69,-99.99,,,-99.99,,2013-01-19 12:48:00,
2013-01-19 06:53:00,38.0,28.0,-100.00,South,190,12.0,14.0,69,-99.99,,,-99.99,,2013-01-19 12:53:00,
2013-01-19 07:03:00,38.0,28.0,-100.00,South,190,12.0,14.0,69,-99.99,,,-99.99,,2013-01-19 13:03:00,
2013-01-19 07:12:00,38.0,28.0,-100.00,SSW,195,14.0,18.0,68,-99.99,,,-99.99,,2013-01-19 13:12:00,
2013-01-19 07:22:00,38.0,28.0,-100.00,SSW,200,14.0,17.0,68,-99.99,,,-99.99,,2013-01-19 13:22:00,
2013-01-19 07:33:00,38.0,28.0,-100.00,SSW,200,14.0,17.0,68,-99.99,,,-99.99,,2013-01-19 13:33:00,
2013-01-19 07:42:00,38.0,28.0,-100.00,South,190,14.0,18.0,68,-99.99,,,-99.99,,2013-01-19 13:42:00,
2013-01-19 07:53:00,38.0,28.0,-100.00,SSW,195,14.0,21.0,68,-99.99,,,-99.99,,2013-01-19 13:53:00,
2013-01-19 08:02:00,38.0,28.0,-100.00,SSW,195,14.0,21.0,68,-99.99,,,-99.99,,2013-01-19 14:02:00,
2013-01-19 08:12:00,38.0,28.0,-100.00,SSW,195,17.0,21.0,67,-99.99,,,-99.99,,2013-01-19 14:12:00,
2013-01-19 08:23:00,39.0,28.0,-100.00,SSW,195,16.0,19.0,66,-99.99,,,-99.99,,2013-01-19 14:23:00,
2013-01-19 08:34:00,39.0,28.0,-100.00,SSW,195,16.0,19.0,66,-99.99,,,-99.99,,2013-01-19 14:34:00,
2013-01-19 08:43:00,40.0,28.0,-100.00,South,190,16.0,21.0,64,-99.99,,,-99.99,,2013-01-19 14:43:00,
2013-01-19 08:53:00,40.0,29.0,-100.00,SSW,195,14.0,16.0,63,-99.99,,,-99.99,,2013-01-19 14:53:00,
2013-01-19 09:03:00,40.0,29.0,-100.00,SSW,195,14.0,16.0,63,-99.99,,,-99.99,,2013-01-19 15:03:00,
2013-01-19 09:13:00,41.0,29.0,-100.00,South,190,14.0,18.0,61,-99.99,,,-99.99,,2013-01-19 15:13:00,
2013-01-19 09:23:00,42.0,29.0,-100.00,SSW,200,14.0,18.0,60,-99.99,,,-99.99,,2013-01-19 15:23:00,
2013-01-19 09:33:00,42.0,29.0,-100.00,SSW,200,14.0,18.0,60,-99.99,,,-99.99,,2013-01-19 15:33:00,
2013-01-19 09:43:00,42.0,28.0,-100.00,South,185,19.0,25.0,58,-99.99,,,-99.99,,2013-01-19 15:43:00,
2013-01-19 09:53:00,43.0,29.0,-100.00,South,180,16.0,21.0,58,-99.99,,,-99.99,,2013-01-19 15:53:00,
2013-01-19 10:03:00,43.0,29.0,-100.00,South,180,16.0,21.0,58,-99.99,,,-99.99,,2013-01-19 16:03:00,
2013-01-19 10:13:00,43.0,29.0,-100.00,SSW,200,17.0,19.0,57,-99.99,,,-99.99,,2013-01-19 16:13:00,
2013-01-19 10:23:00,45.0,30.0,-100.00,SSW,195,14.0,18.0,55,-99.99,,,-99.99,,2013-01-19 16:23:00,
2013-01-19 10:33:00,45.0,30.0,-100.00,SSW,195,14.0,18.0,55,-99.99,,,-99.99,,2013-01-19 16:33:00,
2013-01-19 10:43:00,45.0,30.0,-100.00,SSW,195,11.0,17.0,54,-99.99,,,-99.99,,2013-01-19 16:43:00,
2013-01-19 10:54:00,46.0,30.0,-100.00,South,190,16.0,18.0,53,-99.99,,,-99.99,,2013-01-19 16:54:00,
2013-01-19 11:03:00,46.0,30.0,-100.00,South,190,16.0,18.0,53,-99.99,,,-99.99,,2013-01-19 17:03:00,
2013-01-19 11:19:00,47.0,30.0,-100.00,SSW,205,16.0,19.0,51,-99.99,,,-99.99,,2013-01-19 17:19:00,
2013-01-19 11:28:00,48.0,30.0,-100.00,South,190,14.0,19.0,50,-99.99,,,-99.99,,2013-01-19 17:28:00,
2013-01-19 11:35:00,48.0,30.0,-100.00,SSW,205,14.0,21.0,50,-99.99,,,-99.99,,2013-01-19 17:35:00,
2013-01-19 11:48:00,48.0,30.0,-100.00,SSW,205,14.0,21.0,50,-99.99,,,-99.99,,2013-01-19 17:48:00,
2013-01-19 11:55:00,49.0,31.0,-100.00,SSW,205,21.0,27.0,49,-99.99,,,-99.99,,2013-01-19 17:55:00,
2013-01-19 12:11:00,49.0,31.0,-100.00,SSW,205,21.0,27.0,49,-99.99,,,-99.99,,2013-01-19 18:11:00,
2013-01-19 12:27:00,50.0,31.0,-100.00,SW,215,23.0,27.0,48,-99.99,,,-99.99,,2013-01-19 18:27:00,
2013-01-19 12:35:00,50.0,31.0,-100.00,SW,215,23.0,27.0,48,-99.99,,,-99.99,,2013-01-19 18:35:00,
2013-01-19 12:45:00,50.0,31.0,-100.00,SSW,205,23.0,27.0,48,-99.99,,,-99.99,,2013-01-19 18:45:00,
2013-01-19 13:02:00,52.0,32.0,-100.00,SSW,200,17.0,21.0,47,-99.99,,,-99.99,,2013-01-19 19:02:00,
2013-01-19 13:09:00,52.0,32.0,-100.00,SSW,200,17.0,21.0,47,-99.99,,,-99.99,,2013-01-19 19:09:00,
2013-01-19 13:20:00,52.0,32.0,-100.00,SSW,195,14.0,18.0,47,-99.99,,,-99.99,,2013-01-19 19:20:00,
2013-01-19 13:39:00,53.0,33.0,-100.00,SSW,200,16.0,21.0,46,-99.99,,,-99.99,,2013-01-19 19:39:00,
2013-01-19 13:45:00,54.0,33.0,-100.00,SSW,200,17.0,21.0,45,-99.99,,,-99.99,,2013-01-19 19:45:00,
2013-01-19 13:58:00,55.0,34.0,-100.00,South,185,10.0,14.0,44,-99.99,,,-99.99,,2013-01-19 19:58:00,
2013-01-19 14:10:00,55.0,34.0,-100.00,South,185,10.0,14.0,44,-99.99,,,-99.99,,2013-01-19 20:10:00,
2013-01-19 14:19:00,55.0,33.0,-100.00,SSW,195,17.0,23.0,43,-99.99,,,-99.99,,2013-01-19 20:19:00,
2013-01-19 14:25:00,56.0,33.0,-100.00,SSW,200,18.0,23.0,42,-99.99,,,-99.99,,2013-01-19 20:25:00,
2013-01-19 14:38:00,56.0,33.0,-100.00,SSW,200,18.0,23.0,42,-99.99,,,-99.99,,2013-01-19 20:38:00,
2013-01-19 14:59:00,56.0,34.0,-100.00,SSW,205,16.0,24.0,42,-99.99,,,-99.99,,2013-01-19 20:59:00,
2013-01-19 15:06:00,56.0,34.0,-100.00,SSW,205,16.0,24.0,42,-99.99,,,-99.99,,2013-01-19 21:06:00,
2013-01-19 15:14:00,57.0,34.0,-100.00,South,190,16.0,21.0,42,-99.99,,,-99.99,,2013-01-19 21:14:00,
2013-01-19 15:26:00,57.0,34.0,-100.00,South,175,10.0,16.0,42,-99.99,,,-99.99,,2013-01-19 21:26:00,
2013-01-19 15:44:00,57.0,34.0,-100.00,South,175,10.0,16.0,42,-99.99,,,-99.99,,2013-01-19 21:44:00,
2013-01-19 15:50:00,58.0,34.0,-100.00,SSW,210,9.0,14.0,40,-99.99,,,-99.99,,2013-01-19 21:50:00,
2013-01-19 16:00:00,59.0,34.0,-100.00,SSW,210,12.0,16.0,39,-99.99,,,-99.99,,2013-01-19 22:00:00,
2013-01-19 16:13:00,59.0,34.0,-100.00,SSW,210,12.0,16.0,39,-99.99,,,-99.99,,2013-01-19 22:13:00,
2013-01-19 16:27:00,57.0,34.0,-100.00,SSW,205,17.0,21.0,42,-99.99,,,-99.99,,2013-01-19 22:27:00,
2013-01-19 16:35:00,57.0,34.0,-100.00,SSW,205,17.0,21.0,42,-99.99,,,-99.99,,2013-01-19 22:35:00,
2013-01-19 16:47:00,56.0,34.0,-100.00,SSW,205,9.0,14.0,43,-99.99,,,-99.99,,2013-01-19 22:47:00,
2013-01-19 16:58:00,56.0,34.0,-100.00,SW,220,12.0,16.0,44,-99.99,,,-99.99,,2013-01-19 22:58:00,
2013-01-19 17:13:00,56.0,34.0,-100.00,SW,220,12.0,16.0,44,-99.99,,,-99.99,,2013-01-19 23:13:00,
2013-01-19 17:25:00,54.0,34.0,-100.00,SSW,200,10.0,12.0,46,-99.99,,,-99.99,,2013-01-19 23:25:00,
2013-01-19 17:34:00,54.0,34.0,-100.00,SSW,200,10.0,12.0,46,-99.99,,,-99.99,,2013-01-19 23:34:00,
2013-01-19 17:45:00,52.0,33.0,-100.00,SSW,205,8.0,10.0,48,-99.99,,,-99.99,,2013-01-19 23:45:00,
2013-01-19 18:07:00,51.0,33.0,-100.00,South,175,8.0,9.0,50,-99.99,,,-99.99,,2013-01-20 00:07:00,
2013-01-19 18:15:00,51.0,34.0,-100.00,SSW,195,8.0,10.0,52,-99.99,,,-99.99,,2013-01-20 00:15:00,
2013-01-19 18:25:00,50.0,33.0,-100.00,SSW,200,8.0,9.0,52,-99.99,,,-99.99,,2013-01-20 00:25:00,
2013-01-19 18:35:00,50.0,33.0,-100.00,SSW,200,8.0,9.0,52,-99.99,,,-99.99,,2013-01-20 00:35:00,
2013-01-19 18:46:00,50.0,33.0,-100.00,South,190,9.0,12.0,53,-99.99,,,-99.99,,2013-01-20 00:46:00,
2013-01-19 18:57:00,49.0,34.0,-100.00,SSW,195,9.0,10.0,54,-99.99,,,-99.99,,2013-01-20 00:57:00,
2013-01-19 19:04:00,49.0,34.0,-100.00,SSW,195,9.0,10.0,54,-99.99,,,-99.99,,2013-01-20 01:04:00,
2013-01-19 19:19:00,49.0,34.0,-100.00,SW,215,10.0,14.0,55,-99.99,,,-99.99,,2013-01-20 01:19:00,
2013-01-19 19:26:00,49.0,34.0,-100.00,SSW,210,9.0,11.0,56,-99.99,,,-99.99,,2013-01-20 01:26:00,
2013-01-19 19:47:00,48.0,34.0,-100.00,SW,215,6.0,9.0,58,-99.99,,,-99.99,,2013-01-20 01:47:00,
2013-01-19 20:04:00,47.0,33.0,-100.00,SW,230,4.0,6.0,59,-99.99,,,-99.99,,2013-01-20 02:04:00,
2013-01-19 20:14:00,47.0,34.0,-100.00,SW,225,8.0,11.0,62,-99.99,,,-99.99,,2013-01-20 02:14:00,
2013-01-19 20:26:00,46.0,34.0,-100.00,SSW,210,6.0,9.0,64,-99.99,,,-99.99,,2013-01-20 02:26:00,
2013-01-19 20:35:00,46.0,34.0,-100.00,SSW,210,6.0,9.0,64,-99.99,,,-99.99,,2013-01-20 02:35:00,
2013-01-19 20:44:00,45.0,34.0,-100.00,SSW,205,4.0,6.0,65,-99.99,,,-99.99,,2013-01-20 02:44:00,
2013-01-19 20:59:00,44.0,34.0,-100.00,SW,220,4.0,6.0,67,-99.99,,,-99.99,,2013-01-20 02:59:00,
2013-01-19 21:08:00,44.0,34.0,-100.00,SW,220,4.0,6.0,67,-99.99,,,-99.99,,2013-01-20 03:08:00,
2013-01-19 21:14:00,44.0,34.0,-100.00,SW,215,6.0,9.0,68,-99.99,,,-99.99,,2013-01-20 03:14:00,
2013-01-19 21:25:00,43.0,34.0,-100.00,SW,225,4.0,6.0,69,-99.99,,,-99.99,,2013-01-20 03:25:00,
2013-01-19 21:38:00,43.0,34.0,-100.00,SW,225,4.0,6.0,69,-99.99,,,-99.99,,2013-01-20 03:38:00,
2013-01-19 21:45:00,43.0,34.0,-100.00,SW,225,4.0,6.0,69,-99.99,,,-99.99,,2013-01-20 03:45:00,
2013-01-19 21:58:00,43.0,33.0,-100.00,SW,225,4.0,6.0,67,-99.99,,,-99.99,,2013-01-20 03:58:00,
2013-01-19 22:05:00,43.0,33.0,-100.00,SW,225,4.0,6.0,67,-99.99,,,-99.99,,2013-01-20 04:05:00,
2013-01-19 22:15:00,43.0,33.0,-100.00,SW,230,6.0,6.0,67,-99.99,,,-99.99,,2013-01-20 04:15:00,
2013-01-19 22:25:00,43.0,33.0,-100.00,SW,235,3.0,6.0,67,-99.99,,,-99.99,,2013-01-20 04:25:00,
2013-01-19 22:35:00,43.0,33.0,-100.00,SW,235,3.0,6.0,67,-99.99,,,-99.99,,2013-01-20 04:35:00,
2013-01-19 22:44:00,44.0,33.0,-100.00,West,260,6.0,6.0,64,-99.99,,,-99.99,,2013-01-20 04:44:00,
2013-01-19 22:58:00,46.0,32.0,-100.00,WNW,285,6.0,9.0,59,-99.99,,,-99.99,,2013-01-20 04:58:00,
2013-01-19 23:04:00,46.0,32.0,-100.00,WNW,285,6.0,9.0,59,-99.99,,,-99.99,,2013-01-20 05:04:00,
2013-01-19 23:12:00,47.0,32.0,-100.00,WNW,285,6.0,8.0,56,-99.99,,,-99.99,,2013-01-20 05:12:00,
2013-01-19 23:22:00,47.0,32.0,-100.00,WNW,295,6.0,10.0,54,-99.99,,,-99.99,,2013-01-20 05:22:00,
2013-01-19 23:33:00,47.0,32.0,-100.00,WNW,295,6.0,10.0,54,-99.99,,,-99.99,,2013-01-20 05:33:00,
2013-01-19 23:42:00,47.0,31.0,-100.00,West,280,6.0,8.0,54,-99.99,,,-99.99,,2013-01-20 05:42:00,
2013-01-19 23:53:00,46.0,31.0,-100.00,WNW,285,6.0,9.0,55,-99.99,,,-99.99,,2013-01-20 05:53:00,